This is the latest recevied weather packets stored in our database for station/object WZ8H. If no packets are shown the sender has not sent any weather packets the latest 1 day(s).
| Time | Temp. | Humidity | Pressure | Rain* | Wind** | Luminosity | Snow |
|---|---|---|---|---|---|---|---|
| 1778029950 | 8.89° C | 94% | 1007.6 hPa | 1.52 mm | 0 m/s | 0 W/m² | - |
| 1778029624 | 8.89° C | 94% | 1007.7 hPa | 1.52 mm | 0 m/s | 0 W/m² | - |
| 1778029325 | 8.89° C | 94% | 1007.6 hPa | 1.52 mm | 0 m/s | 0 W/m² | - |
| 1778029009 | 8.89° C | 94% | 1007.6 hPa | 1.52 mm | 0 m/s | 0 W/m² | - |
| 1778028709 | 8.89° C | 94% | 1007.8 hPa | 1.27 mm | 0 m/s | 0 W/m² | - |
| 1778028396 | 8.89° C | 94% | 1007.8 hPa | 1.52 mm | 0 m/s | 0 W/m² | - |
| 1778028095 | 8.89° C | 94% | 1007.8 hPa | 1.27 mm | 0 m/s | 0 W/m² | - |
| 1778027794 | 9.44° C | 94% | 1007.7 hPa | 1.27 mm | 0.45 m/s, 250° | 0 W/m² | - |
| 1778027468 | 9.44° C | 94% | 1007.8 hPa | 1.02 mm | 0.45 m/s, 250° | 0 W/m² | - |
| 1778027153 | 9.44° C | 94% | 1007.9 hPa | 1.27 mm | 0 m/s | 0 W/m² | - |
| 1778026851 | 9.44° C | 94% | 1007.6 hPa | 1.02 mm | 0 m/s | 0 W/m² | - |
| 1778026533 | 9.44° C | 94% | 1007.7 hPa | 0.76 mm | 0 m/s | 0 W/m² | - |
| 1778026229 | 9.44° C | 94% | 1007.5 hPa | 0.76 mm | 0 m/s | 0 W/m² | - |
| 1778025931 | 9.44° C | 94% | 1007.5 hPa | 0.51 mm | 0 m/s | 0 W/m² | - |
| 1778025630 | 10° C | 94% | 1007.4 hPa | 0.51 mm | 0 m/s | 7 W/m² | - |
| 1778025304 | 10° C | 94% | 1007.2 hPa | 0.76 mm | 0 m/s | 11 W/m² | - |
| 1778024982 | 10° C | 94% | 1007.3 hPa | 0.76 mm | 0 m/s | 11 W/m² | - |
| 1778024656 | 10° C | 94% | 1007.4 hPa | 0.51 mm | 0 m/s | 9 W/m² | - |
| 1778024369 | 10° C | 94% | 1007.4 hPa | 0.51 mm | 0 m/s | 12 W/m² | - |
| 1778024058 | 10° C | 94% | 1007.2 hPa | 0.76 mm | 0 m/s | 12 W/m² | - |
| 1778023758 | 10° C | 94% | 1007.2 hPa | 1.02 mm | 0.45 m/s, 290° | 14 W/m² | - |
| 1778023431 | 10° C | 94% | 1007.2 hPa | 1.02 mm | 0 m/s | 21 W/m² | - |
| 1778023106 | 10° C | 94% | 1007.3 hPa | 1.27 mm | 0 m/s | 14 W/m² | - |
| 1778022808 | 10° C | 94% | 1007.4 hPa | 1.52 mm | 0 m/s | 11 W/m² | - |
| 1778022481 | 10° C | 94% | 1007.3 hPa | 1.78 mm | 0 m/s | 14 W/m² | - |
* Rain latest hour (hover to see other rain measurements)
** Current wind speed in m/s (hover to see current wind gust speed)